THOR ABLESTAR DEB, 753

Orbit data source: Space-Track

THOR ABLESTAR DEB, 753 is space debris in LEO originally from a launch on Thu, 05 Dec 1963 UTC launched from the Air Force Western Test Range (AFWTR). Debris objects in space refer to the collection of defunct objects orbiting the Earth. Examples of debris include non-operational satellites, rocket bodies, and fragments generated from explosions, collisions, or faulty payload assembly.

Loading next visibility...
Identifier
753, 1963-049F
Orbit
LEO
Last TLE update
19 hours ago
Origin
Manufacturer
Unknown
Mission
Spacecraft
Bus & Motor
Unknown
Mass
Unknown
Launch date (UTC)
1963-12-05 (62 years ago)
Launch vehicle
Unknown
Launch site
Air Force Western Test Range (AFWTR)
Object type
Payload
Rocket body
Debris
Shape & HBR
Unknown
Radar Cross Section
Small (<0.1 m²)

Expand to show TLE details & history

TLE from 19 hours ago
0 THOR ABLESTAR DEB
1 00753U 63049F   25186.15969758  .00000221  00000-0  30768-3 0  9991
2 00753  89.9144  75.7931 0028164 128.7048  23.9141 13.54740190 33566
Epoch: 2025-07-05T03:49Z
TLE epoch observation values (Epoch: 2025-07-05T03:49:57.87Z)
Latitude
27.28633°
Longitude
-85.14369°
Altitude
1,039.137 km
Speed
7.344 km/s
True Right ascension
17h 02m 59s
True Declination
27° 09' 06"
Sunlit
Object was in full shadow at epoch
Visualization orbit readout
Latitude
-25.22258°
Longitude
94.85337°
Altitude
1,082.706 km
Speed
7.301 km/s
Apparent Right ascension
02h 26m 09s
Apparent Declination
-43° 27' 04"
Sunlit
Object is in daylight
Visualization observer readout
Local Sidereal Time
10:23:39
Azimuth
244.704° WSW
Elevation
-45.597°
Doppler factor
1
Orbital elements
Apogee altitude
1,072.838 km
Perigee altitude
1,030.986 km
Semi-major axis
7,430.049 km
Eccentricity
0.00282
Inclination
89.9144°
RAAN
75.7931°
Arg. of periapsis
128.7048°
True anomaly
Unknown
Mean anomaly
23.9141°
Eccentric anomaly
Unknown
Mean motion
3.38888 °/min
Orbital period
106.23 mins
BSTAR
0.00030768
Loading maneuver chart data...
Loading SW <> Apogee altitude chart data...
Loading historical data...
Loading historical data...
Loading historical data...
Loading historical data...
Loading historical data...
Loading historical data...
Loading historical data...

THOR ABLESTAR DEB Visibility forecast

Observer location: undefined°, undefined°

Span
Click to sort rows by Start time (UTC) header in descending order
Start Az.
Max El. time (UTC)
Max El. Az.
Max El.
End time (UTC)
End Az.
12 mins2025-07-06 04:29:27.944Z13.087° NNE2025-07-06 04:35:27.944Z95.274° ESE38.507°2025-07-06 04:41:27.944Z164.345° S
8 mins2025-07-06 06:17:27.944Z325.068° NNW2025-07-06 06:20:27.944Z291.475° WNW21.612°2025-07-06 06:25:27.944Z237.646° WSW
11 mins2025-07-06 16:25:27.944Z150.443° SSE2025-07-06 16:30:27.944Z81.102° E37.523°2025-07-06 16:36:27.944Z9.328° NNE
8 mins2025-07-06 18:13:27.944Z238.562° WSW2025-07-06 18:16:27.944Z273.733° WNW22.901°2025-07-06 18:21:27.944Z328.821° NNW
|